This demonstration page uses our WeatherBlox Daily Observations layout. Learn more.

Hourly Observations for August 28, 2017

Temp ( °F °C ) Dew Point ( °F °C ) Humidity (%) Winds ( mph kmh ) Pressure ( in mb ) Visibility ( mi km ) Precip ( " mm )
12:15 am 00:15 Clear 62 16.5 60 15.6 94 94 Calm 30.12 1020 10 16.09344 0 0
12:35 am 00:35 Clear 61 16.1 60 15.3 95 95 Calm 30.12 1020 7 11.265408 0 0
12:55 am 00:55 Clear with Mist and Fog 60 15.6 59 14.9 96 96 Calm 30.12 1020 5 8.04672 0 0
1:15 am 01:15 Clear with Mist and Fog 60 15.5 59 14.8 96 96 Calm 30.12 1020 5 8.04672 0 0
1:35 am 01:35 Clear with Mist and Fog 60 15.3 58 14.7 96 96 Calm 30.12 1020 2.5 4.02336 0 0
1:55 am 01:55 Clear with Mist and Fog 59 15.1 58 14.5 96 96 Calm 30.12 1020 4 6.437376 0 0
2:15 am 02:15 Clear with Mist and Fog 59 15 58 14.3 96 96 Calm 30.12 1020 5 8.04672 0 0
2:35 am 02:35 Clear with Mist and Fog 58 14.7 57 14.1 96 96 NW 3 6 30.12 1020 3 4.828032 0 0
2:55 am 02:55 Clear with Mist and Fog 59 15.2 58 14.6 96 96 NNW 5 7 30.12 1020 4 6.437376 0 0
3:15 am 03:15 Clear with Mist and Fog 58 14.7 57 14.1 96 96 Calm 30.12 1020 4 6.437376 0 0
3:35 am 03:35 Clear with Mist and Fog 58 14.5 57 14 97 97 NW 3 6 30.12 1020 2.5 4.02336 0 0
3:55 am 03:55 Clear with Mist and Fog 57 14 56 13.4 96 96 WNW 3 6 30.12 1020 2.5 4.02336 0 0
4:15 am 04:15 Clear with Mist and Fog 58 14.6 57 14 96 96 WNW 5 7 30.12 1020 3 4.828032 0 0
4:35 am 04:35 Clear with Mist and Fog 57 14 56 13.5 97 97 WNW 3 6 30.12 1020 4 6.437376 0 0
4:55 am 04:55 Clear with Mist and Fog 58 14.6 57 14 96 96 W 3 6 30.12 1020 4 6.437376 0 0
5:15 am 05:15 Clear with Mist and Fog 57 13.8 56 13.2 96 96 WNW 5 7 30.15 1021 5 8.04672 0 0
5:35 am 05:35 Clear with Mist and Fog 56 13.5 55 12.9 96 96 WNW 5 7 30.15 1021 4 6.437376 0 0
5:55 am 05:55 Clear with Mist and Fog 56 13.1 55 12.5 96 96 NW 5 7 30.15 1021 5 8.04672 0 0
6:15 am 06:15 Clear with Mist and Fog 56 13.6 55 13 96 96 NW 7 11 30.15 1021 5 8.04672 0 0
6:35 am 06:35 Clear with Mist and Fog 56 13.4 55 12.7 96 96 NW 6 9 30.15 1021 5 8.04672 0 0
6:55 am 06:55 Clear with Mist and Fog 56 13.1 55 12.5 96 96 WNW 6 9 30.18 1022 5 8.04672 0 0
7:15 am 07:15 Sunny with Mist and Fog 56 13.5 55 12.8 96 96 WNW 3 6 30.18 1022 4 6.437376 0 0
7:35 am 07:35 Sunny with Mist and Fog 56 13.5 55 12.8 96 96 NW 5 7 30.18 1022 3 4.828032 0 0
7:55 am 07:55 Sunny with Mist and Fog 57 13.9 56 13.1 95 95 NNW 3 6 30.18 1022 3 4.828032 0 0
8:15 am 08:15 Sunny with Mist and Fog 59 15.1 58 14.4 96 96 Calm 30.15 1021 4 6.437376 0 0
8:35 am 08:35 Sunny with Mist and Fog 61 16.1 59 15 93 93 N 3 6 30.15 1021 5 8.04672 0 0
8:55 am 08:55 Sunny with Mist and Fog 62 16.7 59 15.2 91 91 N 3 6 30.15 1021 5 8.04672 0 0
9:15 am 09:15 Sunny 63 17.3 60 15.5 89 89 N 6 9 30.15 1021 10 16.09344 0 0
9:35 am 09:35 Sunny 65 18.2 61 16.1 88 88 NNE 6 9 30.12 1020 10 16.09344 0 0
9:55 am 09:55 Sunny 67 19.2 62 16.8 86 86 NNE 6 9 30.12 1020 10 16.09344 0 0
10:15 am 10:15 Sunny 68 20.1 62 16.9 82 82 N 7 11 30.12 1020 10 16.09344 0 0
10:35 am 10:35 Sunny 70 21.1 63 17.1 78 78 NNE 7 11 30.12 1020 10 16.09344 0 0
10:55 am 10:55 Sunny 72 22 63 17 73 73 N 7 11 30.09 1019 10 16.09344 0 0
11:15 am 11:15 Sunny 73 22.6 62 16.6 69 69 NNE 6 9 30.09 1019 10 16.09344 0 0
11:35 am 11:35 Sunny 74 23.1 62 16.5 67 67 NNE 9 15 30.09 1019 10 16.09344 0 0
11:55 am 11:55 Sunny 75 23.7 61 16.2 63 63 NNE 8 13 30.06 1018 10 16.09344 0 0
12:15 pm 12:15 Sunny 75 23.9 59 14.9 57 57 N 3 6 30.06 1018 10 16.09344 0 0
12:35 pm 12:35 Sunny 76 24.4 59 14.9 56 56 N 6 9 30.06 1018 10 16.09344 0 0
12:55 pm 12:55 Sunny 76 24.6 59 14.8 55 55 NE 7 11 30.06 1018 10 16.09344 0 0
1:15 pm 13:15 Sunny 77 24.8 58 14.6 53 53 NNE 7 11 30.03 1017 10 16.09344 0 0
1:35 pm 13:35 Sunny 77 24.9 58 14.4 52 52 N 5 7 30.03 1017 10 16.09344 0 0
1:55 pm 13:55 Sunny 77 25 58 14.5 52 52 NNE 6 9 30 1016 10 16.09344 0 0
2:15 pm 14:15 Sunny 77 25.1 58 14.4 52 52 NE 7 11 30 1016 10 16.09344 0 0
2:35 pm 14:35 Sunny 77 25.2 58 14.4 51 51 NNE 3 6 30 1016 10 16.09344 0 0
2:55 pm 14:55 Sunny 77 25.2 57 14 50 50 E 7 11 30 1016 10 16.09344 0 0
3:15 pm 15:15 Sunny 77 25.2 58 14.4 51 51 ENE 5 7 30 1016 10 16.09344 0 0
3:35 pm 15:35 Sunny 78 25.5 58 14.7 51 51 ENE 6 9 30 1016 10 16.09344 0 0
3:55 pm 15:55 Sunny 78 25.5 58 14.5 51 51 ENE 6 9 30 1016 10 16.09344 0 0
4:15 pm 16:15 Sunny 78 25.5 58 14.3 50 50 E 6 9 30 1016 10 16.09344 0 0
4:35 pm 16:35 Sunny 78 25.5 58 14.2 50 50 NE 6 9 30 1016 10 16.09344 0 0
4:55 pm 16:55 Sunny 78 25.3 56 13.4 48 48 ENE 7 11 30 1016 10 16.09344 0 0
5:15 pm 17:15 Sunny 78 25.3 56 13.3 47 47 ENE 8 13 30 1016 10 16.09344 0 0
5:35 pm 17:35 Sunny 77 25.1 56 13.2 48 48 ENE 6 9 30 1016 10 16.09344 0 0
5:55 pm 17:55 Sunny 77 25 56 13.4 49 49 E 8 13 30 1016 10 16.09344 0 0
6:15 pm 18:15 Sunny 77 24.8 57 13.8 50 50 E 7 11 30 1016 10 16.09344 0 0
6:35 pm 18:35 Sunny 76 24.4 56 13.4 50 50 E 7 11 30 1016 10 16.09344 0 0
6:55 pm 18:55 Sunny 75 24 56 13.3 51 51 E 8 13 30.03 1017 10 16.09344 0 0
7:15 pm 19:15 Sunny 74 23.2 58 14.4 58 58 E 5 7 30.03 1017 10 16.09344 0 0
7:35 pm 19:35 Sunny 73 22.5 59 15 63 63 Calm 30.03 1017 10 16.09344 0 0
7:55 pm 19:55 Sunny 72 22.2 59 15 64 64 ESE 5 7 30.03 1017 10 16.09344 0 0
8:15 pm 20:15 Sunny 69 20.3 61 16.2 77 77 ESE 3 6 30.06 1018 10 16.09344 0 0
8:35 pm 20:35 Clear 68 19.8 59 15.2 75 75 ESE 5 7 30.06 1018 10 16.09344 0 0
8:55 pm 20:55 Clear 67 19.5 58 14.6 73 73 SE 6 9 30.06 1018 10 16.09344 0 0
9:15 pm 21:15 Clear 64 18 59 15.1 83 83 ESE 6 9 30.06 1018 10 16.09344 0 0
9:35 pm 21:35 Clear 64 18 59 14.8 82 82 ESE 5 7 30.06 1018 10 16.09344 0 0
9:55 pm 21:55 Clear 64 17.5 58 14.5 83 83 ESE 6 9 30.06 1018 10 16.09344 0 0
10:15 pm 22:15 Clear 64 17.5 58 14.5 83 83 Calm 30.06 1018 10 16.09344 0 0
10:35 pm 22:35 Clear 62 16.6 57 14 85 85 SE 3 6 30.09 1019 10 16.09344 0 0
10:55 pm 22:55 Clear 61 16 57 13.7 86 86 SE 5 7 30.09 1019 10 16.09344 0 0
11:15 pm 23:15 Clear 62 16.5 57 13.8 84 84 Calm 30.09 1019 10 16.09344 0 0
11:35 pm 23:35 Clear 59 15.2 56 13.3 89 89 SE 6 9 30.09 1019 10 16.09344 0 0
11:55 pm 23:55 Clear 59 15.2 56 13.5 90 90 SE 3 6 30.09 1019 10 16.09344 0 0

Powered by AerisWeather